Regional Weather Roundup
Issued by NWS

Current Version | Previous Version | Text Only | Print | Product List | Glossary On
Versions: 1 2 3 4 5 6 7 8 9 10 11 12 13 14 15 16 17 18 19 20 21 22 23 24 25 26 27 28 29 30 31 32 33 34 35 36 37 38 39 40 41 42 43 44 45 46 47 48 49 50
000
ASUS44 KBMX 310710
RWRAL

ALABAMA REGIONAL WEATHER ROUNDUP
NATIONAL WEATHER SERVICE BIRMINGHAM AL
200 AM CDT SUN AUG 31 2014

NOTE: "FAIR" INDICATES FEW OR NO CLOUDS BELOW 12,000 FEET
WITH NO SIGNIFICANT WEATHER AND/OR OBSTRUCTIONS TO VISIBILITY.

THE REMARK "TC" DENOTES TEMPERATURE IN DEGREES CELSIUS.

ALZ001>011-014-016>018-020-310800-
NORTH ALABAMA

CITY           SKY/WX    TMP DP  RH WIND       PRES   REMARKS
MUSCLE SHOALS  CLOUDY    71  68  90 SE8       30.08F
HUNTSVILLE     PTCLDY    72  70  93 SE3       30.10S
DECATUR        MOCLDY    70  70 100 SE3       30.10S
HALEYVILLE     CLOUDY    70  70 100 SE6       30.12S FOG
GADSDEN        PTCLDY    70  66  88 CALM      30.12F
$$

ALZ012-013-022-023-030>036-040>044-310800-
WEST CENTRAL ALABAMA

CITY           SKY/WX    TMP DP  RH WIND       PRES   REMARKS
TUSCALOOSA     MOCLDY    73  71  93 SE5       30.09S
$$

ALZ015-024>027-033>036-040>044-310800-
CENTRAL ALABAMA

CITY           SKY/WX    TMP DP  RH WIND       PRES   REMARKS
BIRMINGHAM     PTCLDY    72  69  90 E3        30.13S
MONTGOMERY     PTCLDY    74  71  91 E3        30.11F
SHELBY CO ARPT PTCLDY    71  69  93 CALM      30.12F
MAXWELL AFB    PTCLDY    74  74 100 CALM      30.11F
GREENVILLE     FAIR      73  70  90 CALM      30.11
$$

ALZ019-021-028-029-037-038-045>048-310800-
EAST CENTRAL ALABAMA

CITY           SKY/WX    TMP DP  RH WIND       PRES   REMARKS
ANNISTON       MOCLDY    72  70  93 NE3       30.13F
ALEXANDER CITY MOCLDY    76  70  83 CALM      30.13F
AUBURN         MOCLDY    72  68  88 CALM      30.17F
$$

ALZ051>064-310800-
SOUTHWEST ALABAMA

CITY           SKY/WX    TMP DP  RH WIND       PRES   REMARKS
MOBILE         MOCLDY    76  75  97 E3        30.08S
BROOKLEY FIELD RAIN      82  79  90 S7        30.08S HX  92
EVERGREEN      MOCLDY    75  73  93 CALM      30.10F
$$

ALZ049-050-065>069-310800-
SOUTHEAST ALABAMA

CITY           SKY/WX    TMP DP  RH WIND       PRES   REMARKS
DOTHAN         MOCLDY    73  71  93 CALM      30.16S
OZARK          MOCLDY    76  73  92 NE5       30.12S
TROY           MOCLDY    73  71  93 CALM      30.12F
EUFAULA        FAIR      73  71  93 CALM      30.11F
$$



USA.gov is the U.S. government's official web portal to all federal, state and local government web resources and services.